Date String (YYYY-MM-DD hh:mm:ss) UTC,Instrument flags,Ambient pressure (hPa),Sample flow (lpm),Bypass flow (lpm),Sample temperature (°C),Ambient temperature (°C),ASC tube jacket temperature (°C),LED temperature (°C),Box temperature (°C),Sample RH (%),Span deviation,Mass concentration (μg/m³),Mass concentration (μg/m³),Mass concentration (μg/m³)
DateTimeUTC,F1_M11,P_M11,Q1_M11,Q2_M11,T1_M11,T2_M11,T3_M11,T4_M11,T5_M11,U1_M11,ZSPAN_M11,X0_M11,X2_M11,X1_M11
2022-12-10 19:00:00,,0825.3,5.02,0.00,24.3,23.2,00.0,33.1,26.3,07.5,0000.0,0009.53,0004.66,0004.00
2022-12-10 19:01:00,,0825.3,5.00,0.00,24.3,23.2,00.0,33.1,26.3,07.6,0000.0,0009.75,0004.66,0004.00
2022-12-10 19:02:00,,0825.3,4.99,0.00,24.3,23.2,00.0,33.1,26.3,07.5,0000.0,0009.82,0004.63,0003.98
2022-12-10 19:03:00,,0825.3,4.99,0.00,24.4,23.2,00.0,33.1,26.3,07.5,0000.0,0009.35,0004.64,0003.98
2022-12-10 19:04:00,,0825.3,5.00,0.00,24.4,23.2,00.0,33.1,26.3,07.4,0000.0,0009.06,0004.63,0003.96
2022-12-10 19:05:00,,0825.3,5.02,0.00,24.4,23.2,00.0,33.1,26.3,07.4,0000.0,0009.19,0004.59,0003.95
2022-12-10 19:06:00,,0825.3,4.99,0.00,24.4,23.2,00.0,33.1,26.3,07.4,0000.0,0009.03,0004.55,0003.94
2022-12-10 19:07:00,,0825.2,4.98,0.00,24.4,23.3,00.0,33.1,26.3,07.4,0000.0,0008.99,0004.52,0003.92
2022-12-10 19:08:00,,0825.2,4.99,0.00,24.4,23.3,00.0,33.1,26.4,07.3,0000.0,0009.23,0004.54,0003.91
2022-12-10 19:09:00,,0825.2,5.01,0.00,24.4,23.3,00.0,33.1,26.4,07.2,0000.0,0009.36,0004.53,0003.89
2022-12-10 19:10:00,,0825.2,5.01,0.00,24.4,23.3,00.0,33.2,26.4,07.1,0000.0,0009.84,0004.49,0003.86
2022-12-10 19:11:00,,0825.2,5.00,0.00,24.5,23.4,00.0,33.2,26.4,07.0,0000.0,0010.25,0004.40,0003.82
2022-12-10 19:12:00,,0825.2,4.99,0.00,24.5,23.4,00.0,33.2,26.4,07.0,0000.0,0010.03,0004.36,0003.78
2022-12-10 19:13:00,,0825.2,4.99,0.00,24.5,23.4,00.0,33.2,26.4,07.1,0000.0,0010.15,0004.29,0003.74
2022-12-10 19:14:00,,0825.2,5.00,0.00,24.5,23.4,00.0,33.2,26.4,07.3,0000.0,0010.50,0004.25,0003.71
2022-12-10 19:15:00,,0825.2,5.00,0.00,24.5,23.4,00.0,33.2,26.4,07.3,0000.0,0010.78,0004.25,0003.70
2022-12-10 19:16:00,,0825.2,5.01,0.00,24.5,23.4,00.0,33.2,26.4,07.4,0000.0,0011.30,0004.26,0003.69
2022-12-10 19:17:00,,0825.2,5.00,0.00,24.6,23.5,00.0,33.2,26.5,07.5,0000.0,0011.26,0004.27,0003.69
2022-12-10 19:18:00,,0825.2,4.98,0.00,24.6,23.5,00.0,33.3,26.5,07.6,0000.0,0011.51,0004.25,0003.69
2022-12-10 19:19:00,,0825.2,4.99,0.00,24.6,23.5,00.0,33.3,26.5,07.7,0000.0,0011.62,0004.24,0003.69
2022-12-10 19:20:00,,0825.1,5.02,0.00,24.6,23.5,00.0,33.3,26.6,07.8,0000.0,0011.40,0004.22,0003.68
2022-12-10 19:21:00,,0825.1,5.01,0.00,24.6,23.6,00.0,33.3,26.6,07.9,0000.0,0012.99,0004.30,0003.69
2022-12-10 19:22:00,,0825.0,4.98,0.00,24.7,23.6,00.0,33.3,26.6,07.8,0000.0,0012.52,0004.34,0003.71
2022-12-10 19:23:00,,0825.0,4.98,0.00,24.7,23.6,00.0,33.3,26.6,07.9,0000.0,0012.51,0004.39,0003.75
2022-12-10 19:24:00,,0825.0,5.00,0.00,24.7,23.6,00.0,33.4,26.6,07.9,0000.0,0012.46,0004.46,0003.79
2022-12-10 19:25:00,,0825.0,5.01,0.00,24.7,23.6,00.0,33.4,26.6,07.9,0000.0,0012.15,0004.53,0003.81
2022-12-10 19:26:00,,0825.1,5.01,0.00,24.7,23.6,00.0,33.4,26.6,07.8,0000.0,0011.96,0004.56,0003.82
2022-12-10 19:27:00,,0825.1,4.99,0.00,24.7,23.6,00.0,33.4,26.6,07.9,0000.0,0011.48,0004.56,0003.82
2022-12-10 19:28:00,,0825.1,4.98,0.00,24.7,23.6,00.0,33.4,26.6,08.0,0000.0,0012.26,0004.59,0003.82
2022-12-10 19:29:00,,0825.1,5.02,0.00,24.7,23.7,00.0,33.4,26.7,07.8,0000.0,0012.56,0004.65,0003.82
2022-12-10 19:30:00,,0825.1,5.02,0.00,24.8,23.7,00.0,33.5,26.7,07.7,0000.0,0013.01,0004.68,0003.82
2022-12-10 19:31:00,,0825.0,4.99,0.00,24.8,23.7,00.0,33.5,26.7,07.6,0000.0,0013.05,0004.72,0003.82
2022-12-10 19:32:00,,0825.0,4.99,0.00,24.8,23.7,00.0,33.5,26.7,07.5,0000.0,0011.27,0004.67,0003.80
2022-12-10 19:33:00,,0825.0,5.00,0.00,24.8,23.7,00.0,33.5,26.7,07.4,0000.0,0010.88,0004.62,0003.78
2022-12-10 19:34:00,,0825.0,5.01,0.00,24.8,23.7,00.0,33.5,26.7,07.4,0000.0,0010.82,0004.58,0003.76
2022-12-10 19:35:00,,0824.9,5.02,0.00,24.8,23.7,00.0,33.5,26.7,07.4,0000.0,0010.73,0004.56,0003.73
2022-12-10 19:36:00,,0824.9,5.00,0.00,24.9,23.8,00.0,33.5,26.7,07.3,0000.0,0010.94,0004.52,0003.71
2022-12-10 19:37:00,,0824.9,4.98,0.00,24.9,23.8,00.0,33.6,26.8,07.4,0000.0,0011.12,0004.49,0003.69
2022-12-10 19:38:00,,0824.9,4.99,0.00,24.9,23.8,00.0,33.6,26.8,07.4,0000.0,0011.06,0004.48,0003.68
2022-12-10 19:39:00,,0824.9,5.01,0.00,24.9,23.8,00.0,33.6,26.8,07.4,0000.0,0010.15,0004.44,0003.66
2022-12-10 19:40:00,,0824.9,5.01,0.00,24.9,23.8,00.0,33.6,26.8,07.4,0000.0,0009.79,0004.40,0003.64
2022-12-10 19:41:00,,0824.8,4.99,0.00,24.9,23.8,00.0,33.6,26.8,07.5,0000.0,0009.37,0004.40,0003.63
2022-12-10 19:42:00,,0824.8,4.99,0.00,24.9,23.8,00.0,33.6,26.8,07.5,0000.0,0009.43,0004.35,0003.62
2022-12-10 19:43:00,,0824.8,5.00,0.00,25.0,23.9,00.0,33.7,26.8,07.4,0000.0,0010.65,0004.34,0003.62
2022-12-10 19:44:00,,0824.7,5.01,0.00,25.0,23.9,00.0,33.7,26.8,07.5,0000.0,0010.99,0004.36,0003.61
2022-12-10 19:45:00,,0824.7,5.02,0.00,25.0,23.9,00.0,33.7,26.9,07.5,0000.0,0011.37,0004.41,0003.63
2022-12-10 19:46:00,,0824.6,4.99,0.00,25.0,23.9,00.0,33.7,26.9,07.4,0000.0,0011.99,0004.40,0003.63
2022-12-10 19:47:00,,0824.6,4.98,0.00,25.0,23.9,00.0,33.7,27.0,07.4,0000.0,0011.67,0004.38,0003.64
2022-12-10 19:48:00,,0824.7,5.00,0.00,25.0,23.9,00.0,33.7,27.0,07.2,0000.0,0011.37,0004.34,0003.62
2022-12-10 19:49:00,,0824.7,5.02,0.00,25.0,23.9,00.0,33.8,27.0,06.9,0000.0,0011.22,0004.31,0003.61
2022-12-10 19:50:00,,0824.6,5.01,0.00,25.1,23.9,00.0,33.8,27.0,07.1,0000.0,0011.14,0004.27,0003.60
2022-12-10 19:51:00,,0824.6,4.98,0.00,25.1,23.9,00.0,33.8,27.0,07.3,0000.0,0011.25,0004.27,0003.59
2022-12-10 19:52:00,,0824.9,4.99,0.00,25.1,23.9,00.0,33.8,27.0,07.1,0000.0,0010.77,0004.24,0003.59
2022-12-10 19:53:00,,0824.6,5.01,0.00,25.1,24.0,00.0,33.8,27.0,07.1,0000.0,0010.79,0004.26,0003.59
2022-12-10 19:54:00,,0824.4,5.01,0.00,25.1,24.0,00.0,33.8,27.0,07.3,0000.0,0009.64,0004.25,0003.59
2022-12-10 19:55:00,,0824.4,5.00,0.00,25.1,24.0,00.0,33.8,27.0,07.1,0000.0,0009.17,0004.24,0003.60
2022-12-10 19:56:00,,0824.4,4.99,0.00,25.1,24.0,00.0,33.8,27.0,07.1,0000.0,0008.99,0004.24,0003.59
2022-12-10 19:57:00,,0824.4,5.00,0.00,25.1,24.0,00.0,33.8,27.0,07.2,0000.0,0008.33,0004.21,0003.58
2022-12-10 19:58:00,,0824.4,5.01,0.00,25.1,24.0,00.0,33.8,27.1,07.3,0000.0,0008.92,0004.23,0003.58
2022-12-10 19:59:00,,0824.7,5.02,0.00,25.2,24.0,00.0,33.9,27.1,07.0,0000.0,0009.38,0004.27,0003.58
